Torna al catalogo

INTERBALL AURORA

AttivoScienzaHEO
NORAD 24293·PAYLOAD·🇷🇺 Russia

Lanciato Aug 29, 1996 da Plesetsk Cosmodrome

Loading…

Prossimi Passaggi (prossime 24 ore)

TLE

AggiornatoSource: Space-Track

Epoca: Sep 11, 2026, 14:48 UTC

1 24293U 96050C   26254.61691380  .00000049  00000-0  00000-0 0  9996
2 24293  62.6708 134.6575 5594463 271.4191  28.6837  4.14736879454908

Traccia INTERBALL AURORA in tempo reale con AllMySat

Download on the App Store